星链-5807 (STARLINK-5807 )

导读 | 星芒AI

STARLINK-5807 是 SpaceX Starlink 项目中的一颗低轨通信卫星,旨在为全球用户提供高速互联网服务。该卫星属于 Starlink 群体部署计划的一部分,通常运行在约 550 公里的高度,采用先进的推进系统和激光通信技术,以提高网络效率和减少延迟。作为 Starlink 卫星群的常规成员,STARLINK-5807 有助于扩大覆盖范围,特别是在偏远和网络基础设施不足的地区。其设计注重可持续性,具备自动避碰功能,以减少太空碎片风险。

基本信息
目录编号:
55791
目录名称:
STARLINK-5807
国际标识:
2023-028BC
轨道中心:
EARTH
卫星名称:
星链-5807
卫星全名:
星链-5807 (STARLINK-5807 )
卫星状态:
在轨 (已飞行1024 天)
发射日期:
2023-03-03 UTC
国别 :
美国 (US)
星等 :
--
轨道信息
数据来源 国际轨道数据
星历时间: 2025-12-21T20:08:15+0800
5小时前
查看轨道信息
半长轴: 6950.229km
偏心率: 0.000225
轨道倾角: 70.002°
近地点辐角 259.615°
升交点赤经 41.643°
平近点角 100.476°
近地点: 570.528km
远地点: 573.656km
周期: 96.108分钟
每日圈数: 14.983184
详细信息
固有亮度:
5
最大亮度:
2.5
卫星平台:
Starlink v1.5
覆盖范围:
全球
运营商:
太空探索技术公司
运营商所在国:
美国
制造商(研发单位):
太空探索技术公司
制造商所在国:
美国
使用方式:
暂无
卫星简介
星链(Starlink)计划是由太空探索技术公司(SpaceX)提出的一个巨型低轨卫星互联网星座项目,计划在2019年至2024年间在太空搭建由约1.2万颗卫星组成的“星链”网络,其中1584颗将部署在地球上空550千米处的近地轨道,并从2020年开始工作。该卫星仍在工作。
2D轨道图
3D轨道图
轨道高度分析图
轨道倾角分析图
轨道综合分析图
查看轨道综合分析图